Location: WWIN Observatory
(34.8953°N, 91.9583°W)
Time: 08:39:54
(UTC-05:00)

Hubble Space Telescope - Visible Passes

Search period start: 18 March 2019 00:00
Search period end: 28 March 2019 00:00
Orbit: 537 x 540 km, 28.5° (Epoch: 17 March)

Date Brightness Start Highest point End Pass type
(mag) Time Alt. Az. Time Alt. Az. Time Alt. Az.
23 Mar 2.9 20:10:07 10° S 20:11:38 12° SSE 20:13:02 10° SE visible
24 Mar 2.8 19:58:45 10° SSW 20:01:02 14° SSE 20:03:18 10° SE visible
24 Mar 3.3 21:38:05 10° SW 21:38:50 14° SW 21:38:50 14° SW visible
25 Mar 2.6 19:47:42 10° SSW 19:50:26 17° SSE 19:53:11 10° ESE visible
25 Mar 2.8 21:27:28 10° WSW 21:29:11 20° SW 21:29:11 20° SW visible
26 Mar 2.2 21:16:54 10° WSW 21:19:27 27° SSW 21:19:27 27° SSW visible
27 Mar 1.8 21:06:20 10° WSW 21:09:41 33° S 21:09:41 33° S visible
